Flag for Canada

Past Weather in Windsor, Ontario, Canada — Yesterday and Last 2 Weeks

Now
91 °F

Sunny.


Feels Like: 92 °F
Forecast: 92 / 67 °F
Wind: 10 mph from South

Location: Windsor Weather Station

Current Time: Jul 6, 2020 at 5:56:39 pm

Latest Report: Jul 6, 2020 at 5:00 pm


Visibility: 9 mi

Pressure: 29.97 "Hg

Humidity: 38%

Dew Point: 63 °F

Location of WindsorLocation

Past Weather in Windsor — Graph

°F

Windsor Temperature Yesterday

Maximum temperature yesterday: 91 °F (at 4:00 pm)
Minimum temperature yesterday: 63 °F (at 5:00 am)
Average temperature yesterday: 78 °F

High & Low Weather Summary for the Past Weeks

 TemperatureHumidityPressure
High93 °F (Jul 6, 4:00 pm)100% (Jun 23, 5:46 am)30.04 "Hg (Jun 23, 5:46 am)
Low57 °F (Jun 25, 6:00 am)26% (Jul 5, 4:00 pm)29.56 "Hg (Jun 23, 3:00 pm)
Average75 °F68%29.89 "Hg
* Reported Jun 21 4:00 pm — Jul 6 4:00 pm, Windsor. Weather by CustomWeather, © 2020

Note: Actual official high and low records may vary slightly from our data, if they occured in-between our weather recording intervals... More about our weather records

Windsor Weather History for the Previous 24 Hours

Scroll right to see more
 ConditionsComfort  
Time TempWeatherWind HumidityBarometerVisibility
4:00 pm
Mon, Jul 6
93 °FSunny.12 mph36%29.98 "Hg9 mi
3:00 pm91 °FSunny.9 mph38%30.00 "Hg9 mi
2:00 pm91 °FSunny.13 mph36%30.02 "Hg9 mi
1:00 pm90 °FPassing clouds.6 mph43%30.03 "Hg9 mi
12:00 pm88 °FSunny.7 mph49%30.03 "Hg9 mi
11:00 am88 °FSunny.6 mph43%30.02 "Hg9 mi
10:00 am84 °FPassing clouds.3 mph58%30.02 "Hg9 mi
9:00 am81 °FSunny.5 mph74%30.01 "Hg9 mi
8:00 am77 °FSunny.3 mph79%30.01 "Hg9 mi
7:00 am70 °FSunny.3 mph88%30.01 "Hg9 mi
6:00 am68 °FClear.2 mph94%30.00 "Hg9 mi
5:00 am68 °FPassing clouds.2 mph94%29.98 "Hg9 mi
4:00 am68 °FPassing clouds.2 mph94%29.98 "Hg9 mi
3:00 am70 °FClear.5 mph83%29.98 "Hg9 mi
2:00 am72 °FClear.3 mph78%29.99 "Hg9 mi
1:00 am70 °FClear.3 mph83%29.99 "Hg9 mi
12:00 am73 °FClear.2 mph69%29.98 "Hg9 mi
11:00 pm
Sun, Jul 5
75 °FClear.5 mph61%29.97 "Hg9 mi
10:00 pm77 °FClear.5 mph54%29.96 "Hg9 mi
9:00 pm81 °FSunny.6 mph48%29.94 "Hg9 mi
8:00 pm86 °FSunny.7 mph38%29.94 "Hg9 mi
7:00 pm88 °FSunny.7 mph35%29.93 "Hg9 mi
6:00 pm90 °FSunny.9 mph36%29.94 "Hg9 mi
5:00 pm91 °FSunny.7 mph26%29.94 "Hg9 mi
Weather by CustomWeather, © 2020

See weather overview